Hourly Data Report for October 10, 2015

All times are specified in Local Standard Time (LST). Add 1 hour to adjust for Daylight Saving Time where and when it is observed.

EUREKA CLIMATE
NUNAVUT

79°59'21.000" N
85°56'02.000" W
10.00 m
2401199
71613
NEK

Download Data

Hourly Data (October 2015)
Hourly Data Report for October 10, 2015
Temp Definition
°C
Dew Point Temp Definition
°C
Rel Hum Definition
%
Wind Dir Definition
10's deg

Wind Spd Definition
km/h
Visibility Definition
km
Stn Press Definition
kPa
Hmdx Definition


Wind Chill Definition


Weather Definition


TIME
00:00 -14.6 -15.5 93 10 6   101.16   -19 LegendNANA
01:00 -14.4 -15.4 92 10 3   101.18   -17 LegendNANA
02:00 -14.0 -15.0 93 10 6   101.21   -18 LegendNANA
03:00 -14.5 -15.5 92 7 3   101.22   -17 LegendNANA
04:00 -13.9 -14.9 92 12 1   101.25   -15 LegendNANA
05:00 -13.8 -14.7 92 9 2   101.27   -15 LegendNANA
06:00 -13.9 -14.9 92 9 1   101.30   -15 LegendNANA
07:00 -14.6 -15.7 92 8 1   101.31   -15 LegendNANA
08:00 -16.0 -17.1 91 2 1   101.34   -17 LegendNANA
09:00 -17.1 -18.4 90 2 1   101.37   -18 LegendNANA
10:00 -18.6 -20.1 89 2 1   101.40   -19 LegendNANA
11:00 -18.6 -20.1 88 5 1   101.42   -19 LegendNANA
12:00 -19.5 -21.0 88 2 1   101.43   -20 LegendNANA
13:00 -17.9 -19.0 91 7 1   101.46   -19 LegendNANA
14:00 -18.2 -19.6 89 10 1   101.49   -19 LegendNANA
15:00 -18.9 -20.4 88 4 1   101.51   -20 LegendNANA
16:00 -19.4 -21.0 87 12 1   101.54   -20 LegendNANA
17:00 -19.8 -21.3 88 5 1   101.57   -21 LegendNANA
18:00 -19.7 -21.2 88 4 1   101.58   -21 LegendNANA
19:00 -19.7 -21.2 88 25 1   101.60   -21 LegendNANA
20:00 -21.1 -22.9 86 9 1   101.59   -22 LegendNANA
21:00 -21.3 -23.1 86 13 1   101.58   -22 LegendNANA
22:00 -20.9 -22.5 87 10 1   101.57   -22 LegendNANA
23:00 -21.2 -23.0 86 11 1   101.56   -22 LegendNANA

Notes on Data Quality.

Legend

  • E = Estimated
  • M = Missing
  • NA = Not Available
  • ‡ = Partner data that is not subject to review by the National Climate Archives
Date modified: